User: anonymous   Login
Location: Mauna Kea VIS
(19.7591°N, 155.4561°W)
Time: 02:16:35
(UTC-10:00)
Language:

Cosmos 1624 Rocket - Orbit

View from above orbital plane
View from above orbital plane
View from above satellite
View from above satellite

Ground track
Ground track

The orbit data is extracted from the following two-line orbital elements,

1 15483U 85006B   16148.07332057  .00000036  00000-0  21330-4 0  9999
2 15483  74.0456 343.8339 0018067  58.8345  77.0732 14.36122261641125
Epoch (UTC): 27 May 2016 01:45:34
Eccentricity: 0.0018067
inclination: 74.0456°
perigee height: 758 km
apogee height: 784 km
right ascension of ascending node: 343.8339°
argument of perigee: 58.8345°
revolutions per day: 14.36122261
mean anomaly at epoch: 77.0732°
orbit number at epoch: 64112

The dashed part of the orbit path shows where the satellite is in the earth's shadow,  

DLR